Location: Newark
(39.9500°N, 8.6833°E)
Time: 04:12:17
(UTC+00:00)

NOAA 18 - Visible Passes

Search period start: 28 February 2020 00:00
Search period end: 09 March 2020 00:00
Orbit: 840 x 861 km, 99.1° (Epoch: 27 February)

Date Brightness Start Highest point End Pass type
(mag) Time Alt. Az. Time Alt. Az. Time Alt. Az.
28 Feb 6.3 19:15:55 29° NE 19:15:55 29° NE 19:19:22 10° N visible
28 Feb 7.5 20:57:55 20° NW 20:57:55 20° NW 20:59:55 10° NW visible
29 Feb 6.4 19:03:52 26° NE 19:03:52 26° NE 19:07:20 10° N visible
29 Feb 7.2 20:45:51 25° NW 20:45:51 25° NW 20:48:21 10° NNW visible
01 Mar 6.5 18:51:48 22° NE 18:51:48 22° NE 18:55:13 10° NNE visible
01 Mar 6.8 20:33:48 30° NW 20:33:48 30° NW 20:36:44 10° NNW visible
02 Mar 6.7 18:39:44 18° ENE 18:39:44 18° ENE 18:43:00 10° NNE visible
02 Mar 6.5 20:21:44 36° NNW 20:21:44 36° NNW 20:25:02 10° NNW visible
03 Mar 6.9 18:27:40 14° ENE 18:27:48 14° ENE 18:30:35 10° NNE visible
03 Mar 6.1 20:09:40 43° NNW 20:09:40 43° NNW 20:13:17 10° NNW visible
04 Mar 7.1 18:15:36 11° ENE 18:16:13 11° ENE 18:17:39 10° NE visible
04 Mar 5.9 19:57:37 47° N 19:57:37 47° N 20:01:30 10° N visible
04 Mar 8.1 21:39:36 10° WNW 21:39:36 10° WNW 21:39:38 10° WNW visible
05 Mar 5.7 19:45:33 47° NNE 19:45:33 47° NNE 19:49:39 10° N visible
05 Mar 7.9 21:27:33 14° WNW 21:27:33 14° WNW 21:28:45 10° NW visible
06 Mar 5.7 19:33:29 43° NE 19:33:29 43° NE 19:37:45 10° N visible
06 Mar 7.6 21:15:29 18° WNW 21:15:29 18° WNW 21:17:32 10° NW visible
07 Mar 5.9 19:21:26 37° NE 19:21:26 37° NE 19:25:48 10° N visible
07 Mar 7.3 21:03:26 22° WNW 21:03:26 22° WNW 21:06:08 10° NW visible
08 Mar 6.1 19:09:22 30° ENE 19:09:22 30° ENE 19:13:48 10° N visible
08 Mar 7.0 20:51:22 28° WNW 20:51:22 28° WNW 20:54:37 10° NNW visible
